Pine River, MN

12:48 AM CDT on October 20, 2017 (GMT -0500)
Pine River Regional

Weather History for KPWC - November, 2012

Change the Weather History Date:

Thursday, November 8, 2012

  Actual Average Record
Temperature  
Mean Temperature 40 °F -  
Max Temperature 48 °F 39 °F 69 °F (1999)
Min Temperature 33 °F 24 °F -11 °F (2003)
Degree Days  
Heating Degree Days 24    
Moisture  
Dew Point 33 °F    
Average Humidity 76    
Maximum Humidity 87    
Minimum Humidity 58    
Precipitation  
Precipitation 0.00 in - - ()
Sea Level Pressure  
Sea Level Pressure 29.97 in    
Wind  
Wind Speed 9 mph (NW)    
Max Wind Speed 16 mph    
Max Gust Speed 20 mph    
Visibility 10 miles    
Events      
Averages and records for this station are not official NWS values.
T = Trace of Precipitation, MM = Missing Value Source: NWS Daily Summary

Daily Weather History Graph

Daily Weather History Graph

Search for Another Location

Airport or City:

Trip Planner

Search our weather history database for the weather conditions in past years. The results will help you decide how hot, cold, wet, or windy it might be!

Date:

Astronomy

Nov. 08, 2012 Rise Set
Actual Time 7:10 AM CST 4:51 PM CST
Civil Twilight 6:38 AM CST 5:23 PM CST
Nautical Twilight 6:01 AM CST 5:59 PM CST
Astronomical Twilight 5:26 AM CST 6:35 PM CST
Moon 12:45 AM CST (11/8) 1:51 PM CST (11/8)
Length of Visible Light 10h 45m
Length of Day
9h 40m
Waning Crescent, 32% of the Moon is Illuminated
Nov 8
Waning Crescent
Nov 13
New
Nov 20
First Quarter
Nov 28
Full
Dec 6
Last Quarter

Hourly Weather History & Observations

Time (CST) Temp. Windchill Dew Point Humidity Pressure Visibility Wind Dir Wind Speed Gust Speed Precip Events Conditions
12:12 AM 39.2 °F 32.5 °F 30.2 °F 70% 29.97 in 10.0 mi South 10.4 mph 18.4 mph N/A   Overcast
12:32 AM 39.2 °F 33.0 °F 32.0 °F 75% 29.97 in 10.0 mi South 9.2 mph 16.1 mph N/A   Mostly Cloudy
12:52 AM 39.2 °F 32.5 °F 32.0 °F 75% 29.96 in 10.0 mi South 10.4 mph - N/A   Scattered Clouds
1:13 AM 39.2 °F 32.0 °F 32.0 °F 75% 29.96 in 10.0 mi South 11.5 mph 17.3 mph N/A   Clear
1:33 AM 39.2 °F 33.0 °F 32.0 °F 75% 29.95 in 10.0 mi South 9.2 mph - N/A   Clear
1:52 AM 39.2 °F 32.5 °F 32.0 °F 75% 29.95 in 10.0 mi South 10.4 mph - N/A   Clear
2:12 AM 39.2 °F 32.0 °F 32.0 °F 75% 29.94 in 10.0 mi SSE 11.5 mph - N/A   Clear
2:33 AM 39.2 °F 30.8 °F 30.2 °F 70% 29.92 in 10.0 mi SSE 15.0 mph 19.6 mph N/A   Clear
2:52 AM 39.2 °F 31.2 °F 32.0 °F 75% 29.91 in 10.0 mi SSE 13.8 mph 18.4 mph N/A   Clear
3:12 AM 37.4 °F 30.8 °F 30.2 °F 75% 29.92 in 10.0 mi South 9.2 mph 18.4 mph N/A   Scattered Clouds
3:33 AM 37.4 °F 29.8 °F 30.2 °F 75% 29.92 in 10.0 mi South 11.5 mph 16.1 mph N/A   Clear
3:52 AM 37.4 °F 29.8 °F 30.2 °F 75% 29.91 in 10.0 mi SSE 11.5 mph 18.4 mph N/A   Clear
4:13 AM 37.4 °F 29.8 °F 30.2 °F 75% 29.90 in 10.0 mi SSE 11.5 mph - N/A   Clear
4:33 AM 37.4 °F 30.8 °F 30.2 °F 75% 29.90 in 10.0 mi SSE 9.2 mph 16.1 mph N/A   Clear
4:52 AM 37.4 °F 30.3 °F 30.2 °F 75% 29.90 in 10.0 mi South 10.4 mph - N/A   Clear
5:13 AM 37.4 °F 32.1 °F 30.2 °F 75% 29.91 in 10.0 mi South 6.9 mph - N/A   Clear
5:32 AM 35.6 °F 29.2 °F 30.2 °F 81% 29.91 in 10.0 mi South 8.1 mph - N/A   Clear
5:52 AM 35.6 °F 29.9 °F 30.2 °F 81% 29.90 in 10.0 mi South 6.9 mph - N/A   Clear
6:12 AM 35.6 °F 30.7 °F 30.2 °F 81% 29.89 in 10.0 mi SSE 5.8 mph - N/A   Clear
6:32 AM 35.6 °F 31.7 °F 30.2 °F 81% 29.89 in 10.0 mi South 4.6 mph - N/A   Clear
6:53 AM 33.8 °F 28.6 °F 30.2 °F 87% 29.90 in 10.0 mi South 5.8 mph - N/A   Clear
7:13 AM 33.8 °F 29.6 °F 30.2 °F 87% 29.90 in 10.0 mi South 4.6 mph - N/A   Clear
7:33 AM 35.6 °F 32.8 °F 30.2 °F 81% 29.92 in 10.0 mi South 3.5 mph - N/A   Clear
7:53 AM 35.6 °F 30.7 °F 30.2 °F 81% 29.92 in 10.0 mi South 5.8 mph - N/A   Clear
8:13 AM 35.6 °F 30.7 °F 30.2 °F 81% 29.92 in 10.0 mi South 5.8 mph - N/A   Clear
8:33 AM 37.4 °F 31.4 °F 30.2 °F 75% 29.92 in 10.0 mi South 8.1 mph - N/A   Clear
8:53 AM 37.4 °F 33.8 °F 30.2 °F 75% 29.92 in 10.0 mi South 4.6 mph - N/A   Clear
9:13 AM 39.2 °F 33.0 °F 30.2 °F 70% 29.92 in 10.0 mi SSW 9.2 mph - N/A   Clear
9:33 AM 39.2 °F 35.0 °F 32.0 °F 75% 29.92 in 10.0 mi South 5.8 mph - N/A   Clear
9:53 AM 41.0 °F 38.0 °F 32.0 °F 70% 29.92 in 10.0 mi South 4.6 mph - N/A   Clear
10:12 AM 41.0 °F 35.8 °F 32.0 °F 70% 29.92 in 10.0 mi SSW 8.1 mph - N/A   Clear
10:33 AM 42.8 °F - 32.0 °F 66% 29.92 in 5.0 mi Calm Calm - N/A   Haze
10:53 AM 42.8 °F - 32.0 °F 66% 29.93 in 7.0 mi Calm Calm - N/A   Clear
11:10 AM 42.8 °F 40.1 °F 32.0 °F 66% 29.93 in 7.0 mi West 4.6 mph - N/A   Clear
11:33 AM 44.6 °F 39.7 °F 32.0 °F 61% 29.93 in 10.0 mi West 9.2 mph - N/A   Clear
11:53 AM 46.4 °F 42.9 °F 33.8 °F 62% 29.92 in 10.0 mi WNW 6.9 mph - N/A   Clear
12:12 PM 46.4 °F 42.9 °F 33.8 °F 62% 29.92 in 10.0 mi West 6.9 mph - N/A   Clear
12:32 PM 46.4 °F 42.4 °F 33.8 °F 62% 29.92 in 10.0 mi West 8.1 mph - N/A   Clear
12:53 PM 48.2 °F - 33.8 °F 58% 29.93 in 10.0 mi NW 9.2 mph - N/A   Clear
1:13 PM 48.2 °F - 35.6 °F 62% 29.93 in 10.0 mi NW 6.9 mph - N/A   Clear
1:32 PM 48.2 °F - 35.6 °F 62% 29.93 in 10.0 mi WNW 3.5 mph - N/A   Clear
1:53 PM 48.2 °F - 35.6 °F 62% 29.94 in 10.0 mi NNW 8.1 mph - N/A   Clear
2:13 PM 48.2 °F - 35.6 °F 62% 29.94 in 10.0 mi NNW 4.6 mph - N/A   Scattered Clouds
2:33 PM 48.2 °F - 35.6 °F 62% 29.95 in 10.0 mi NNW 9.2 mph - N/A   Clear
2:53 PM 44.6 °F 38.8 °F 35.6 °F 71% 29.97 in 10.0 mi NNW 11.5 mph - N/A   Clear
3:13 PM 42.8 °F 36.6 °F 35.6 °F 76% 29.98 in 10.0 mi NNW 11.5 mph - N/A   Mostly Cloudy
3:33 PM 41.0 °F 32.8 °F 35.6 °F 81% 30.00 in 10.0 mi North 16.1 mph 19.6 mph N/A   Overcast
3:52 PM 39.2 °F 32.5 °F 35.6 °F 87% 30.01 in 10.0 mi North 10.4 mph - N/A   Overcast
4:13 PM 39.2 °F 37.0 °F 35.6 °F 87% 30.02 in 10.0 mi NNW 3.5 mph - N/A   Overcast
4:33 PM 41.0 °F 37.1 °F 33.8 °F 76% 30.02 in 10.0 mi North 5.8 mph - N/A   Overcast
4:53 PM 41.0 °F 36.4 °F 33.8 °F 76% 30.02 in 10.0 mi North 6.9 mph - N/A   Overcast
5:12 PM 41.0 °F 37.1 °F 33.8 °F 76% 30.03 in 10.0 mi North 5.8 mph - N/A   Overcast
5:33 PM 41.0 °F 36.4 °F 35.6 °F 81% 30.04 in 10.0 mi North 6.9 mph - N/A   Overcast
5:53 PM 41.0 °F 34.7 °F 35.6 °F 81% 30.04 in 10.0 mi NNE 10.4 mph 16.1 mph N/A   Overcast
6:13 PM 41.0 °F 35.2 °F 33.8 °F 76% 30.05 in 10.0 mi North 9.2 mph - N/A   Overcast
6:33 PM 41.0 °F 35.8 °F 33.8 °F 76% 30.05 in 10.0 mi North 8.1 mph - N/A   Overcast
6:52 PM 41.0 °F 36.4 °F 33.8 °F 76% 30.05 in 10.0 mi North 6.9 mph - N/A   Overcast
7:12 PM 39.2 °F 35.9 °F 33.8 °F 81% 30.06 in 10.0 mi North 4.6 mph - N/A   Overcast
7:33 PM 39.2 °F 34.2 °F 33.8 °F 81% 30.07 in 10.0 mi North 6.9 mph - N/A   Overcast
7:52 PM 39.2 °F 33.0 °F 33.8 °F 81% 30.06 in 10.0 mi North 9.2 mph - N/A   Overcast
8:13 PM 39.2 °F 33.6 °F 33.8 °F 81% 30.07 in 10.0 mi North 8.1 mph - N/A   Overcast
8:32 PM 39.2 °F 33.6 °F 33.8 °F 81% 30.07 in 10.0 mi North 8.1 mph - N/A   Overcast
8:53 PM 39.2 °F 33.6 °F 33.8 °F 81% 30.07 in 10.0 mi North 8.1 mph - N/A   Overcast
9:13 PM 39.2 °F 34.2 °F 33.8 °F 81% 30.08 in 10.0 mi North 6.9 mph - N/A   Overcast
9:32 PM 39.2 °F 34.2 °F 33.8 °F 81% 30.08 in 10.0 mi North 6.9 mph - N/A   Overcast
9:53 PM 39.2 °F 33.0 °F 33.8 °F 81% 30.09 in 10.0 mi NNE 9.2 mph - N/A   Overcast
10:13 PM 39.2 °F 34.2 °F 33.8 °F 81% 30.09 in 10.0 mi North 6.9 mph - N/A   Overcast
10:33 PM 37.4 °F 33.8 °F 33.8 °F 87% 30.09 in 10.0 mi NNE 4.6 mph - N/A   Overcast
10:53 PM 37.4 °F 31.4 °F 33.8 °F 87% 30.09 in 10.0 mi North 8.1 mph - N/A   Overcast
11:13 PM 37.4 °F 32.8 °F 33.8 °F 87% 30.09 in 10.0 mi North 5.8 mph - N/A   Overcast
11:32 PM 37.4 °F 31.4 °F 33.8 °F 87% 30.09 in 10.0 mi North 8.1 mph - N/A   Overcast
11:52 PM 37.4 °F 31.4 °F 33.8 °F 87% 30.09 in 10.0 mi North 8.1 mph - N/A   Overcast